AAL2229 KLAX-KLAS

Flight info

Callsign AAL2229
Flight time 0h 48m
Altitude 24000
Route ORCKA5 MISEN RNDRZ4
Aircraft B738/M-SDE2E3FGHIRWXY/LB1

Departure

Time 2026-05-05 16:55
Airport Los Angeles International Airport (KLAX)

Arrival

Time 2026-05-05 17:43
Airport Harry Reid International Airport (KLAS)
Time Latitude Longitude Altitude Speed Heading
2026-05-05 16:27 33.93952 -118.40641 92 ft 0 kts 344°
2026-05-05 16:45 33.93942 -118.40638 92 ft 4 kts 349°
2026-05-05 16:45 33.93916 -118.40637 91 ft 4 kts 20°
2026-05-05 16:46 33.93897 -118.40653 90 ft 4 kts 72°
2026-05-05 16:46 33.93894 -118.40666 93 ft 1 kts 83°
2026-05-05 16:46 33.93894 -118.40667 93 ft 0 kts 83°
2026-05-05 16:49 33.93895 -118.40655 95 ft 7 kts 83°
2026-05-05 16:50 33.93903 -118.40574 92 ft 6 kts 83°
2026-05-05 16:50 33.93887 -118.40533 94 ft 6 kts 168°
2026-05-05 16:50 33.93845 -118.40526 93 ft 6 kts 167°
2026-05-05 16:50 33.93830 -118.40483 95 ft 6 kts 91°
2026-05-05 16:51 33.93835 -118.40431 94 ft 7 kts 83°
2026-05-05 16:51 33.93844 -118.40335 95 ft 16 kts 83°
2026-05-05 16:51 33.93862 -118.40160 95 ft 25 kts 83°
2026-05-05 16:51 33.93885 -118.39937 98 ft 27 kts 83°
2026-05-05 16:52 33.93906 -118.39724 94 ft 25 kts 83°
2026-05-05 16:52 33.93927 -118.39524 95 ft 23 kts 83°
2026-05-05 16:52 33.93947 -118.39335 92 ft 22 kts 83°
2026-05-05 16:52 33.93966 -118.39151 96 ft 22 kts 83°
2026-05-05 16:53 33.93985 -118.38963 94 ft 24 kts 83°
2026-05-05 16:53 33.94006 -118.38759 93 ft 24 kts 83°
2026-05-05 16:53 33.94026 -118.38564 94 ft 23 kts 83°
2026-05-05 16:53 33.94044 -118.38382 95 ft 16 kts 87°
2026-05-05 16:54 33.93989 -118.38328 99 ft 11 kts 180°
2026-05-05 16:54 33.93945 -118.38394 98 ft 8 kts 262°
2026-05-05 16:54 33.93944 -118.38409 98 ft 6 kts 263°
2026-05-05 16:54 33.93913 -118.38713 95 ft 72 kts 263°
2026-05-05 16:55 33.93825 -118.39571 99 ft 132 kts 263°
2026-05-05 16:55 33.93703 -118.40816 412 ft 156 kts 262°
2026-05-05 16:55 33.93573 -118.42108 1148 ft 159 kts 262°
2026-05-05 16:55 33.93431 -118.43503 1562 ft 181 kts 263°
2026-05-05 16:56 33.93272 -118.45131 1815 ft 208 kts 264°
2026-05-05 16:56 33.92994 -118.46908 2156 ft 224 kts 253°
2026-05-05 16:56 33.92442 -118.48737 2465 ft 244 kts 249°
2026-05-05 16:56 33.91805 -118.50666 3136 ft 250 kts 249°
2026-05-05 16:57 33.91144 -118.52622 3862 ft 254 kts 249°
2026-05-05 16:57 33.90466 -118.54602 4601 ft 259 kts 248°
2026-05-05 16:57 33.89776 -118.56620 5371 ft 261 kts 249°
2026-05-05 16:57 33.89102 -118.58666 6084 ft 265 kts 251°
2026-05-05 16:58 33.88452 -118.60764 6765 ft 271 kts 250°
2026-05-05 16:58 33.87774 -118.62885 7476 ft 273 kts 249°
2026-05-05 16:58 33.86769 -118.64832 8188 ft 278 kts 225°
2026-05-05 16:58 33.85123 -118.66057 8946 ft 283 kts 200°
2026-05-05 16:59 33.83154 -118.66311 9651 ft 291 kts 173°
2026-05-05 16:59 33.81239 -118.65486 10259 ft 300 kts 148°
2026-05-05 16:59 33.79681 -118.63701 10421 ft 324 kts 124°
2026-05-05 16:59 33.78741 -118.61164 10603 ft 344 kts 102°
2026-05-05 17:00 33.78658 -118.58242 10804 ft 359 kts 78°
2026-05-05 17:00 33.79659 -118.55495 11288 ft 363 kts 50°
2026-05-05 17:00 33.81534 -118.53504 11915 ft 361 kts 31°
2026-05-05 17:00 33.83649 -118.51941 12585 ft 363 kts 30°
2026-05-05 17:01 33.85789 -118.50286 13219 ft 368 kts 32°
2026-05-05 17:01 33.87894 -118.48493 13890 ft 372 kts 34°
2026-05-05 17:01 33.89976 -118.46620 14531 ft 375 kts 35°
2026-05-05 17:01 33.92042 -118.44687 15190 ft 378 kts 39°
2026-05-05 17:02 33.93875 -118.42387 15830 ft 384 kts 51°
2026-05-05 17:02 33.95394 -118.39752 16477 ft 387 kts 55°
2026-05-05 17:02 33.96873 -118.37047 17115 ft 390 kts 55°
2026-05-05 17:02 33.98383 -118.34321 17751 ft 393 kts 54°
2026-05-05 17:03 33.99924 -118.31581 18413 ft 397 kts 54°
2026-05-05 17:03 34.01487 -118.28829 18969 ft 397 kts 54°
2026-05-05 17:03 34.03067 -118.26056 19467 ft 402 kts 54°
2026-05-05 17:03 34.04652 -118.23268 20046 ft 403 kts 54°
2026-05-05 17:04 34.06236 -118.20471 20604 ft 405 kts 54°
2026-05-05 17:04 34.07823 -118.17653 21111 ft 408 kts 54°
2026-05-05 17:04 34.09424 -118.14816 21588 ft 411 kts 54°
2026-05-05 17:04 34.11042 -118.11953 22144 ft 415 kts 54°
2026-05-05 17:05 34.12122 -118.10042 22525 ft 417 kts 54°
2026-05-05 17:05 34.13759 -118.07141 23075 ft 419 kts 54°
2026-05-05 17:05 34.15403 -118.04226 23584 ft 422 kts 54°
2026-05-05 17:05 34.17064 -118.01278 23956 ft 425 kts 54°
2026-05-05 17:06 34.18727 -117.98322 24371 ft 426 kts 54°
2026-05-05 17:06 34.20931 -117.94400 24990 ft 426 kts 54°
2026-05-05 17:06 34.22054 -117.92401 24992 ft 425 kts 54°
2026-05-05 17:06 34.23708 -117.89453 25025 ft 423 kts 54°
2026-05-05 17:07 34.25357 -117.86512 25019 ft 424 kts 54°
2026-05-05 17:07 34.27015 -117.83554 25022 ft 424 kts 54°
2026-05-05 17:07 34.28665 -117.80606 25015 ft 424 kts 54°
2026-05-05 17:07 34.30317 -117.77653 25013 ft 424 kts 54°
2026-05-05 17:08 34.31969 -117.74699 25013 ft 424 kts 54°
2026-05-05 17:08 34.33622 -117.71740 25003 ft 424 kts 54°
2026-05-05 17:08 34.35273 -117.68785 24998 ft 424 kts 54°
2026-05-05 17:08 34.36969 -117.65857 24991 ft 424 kts 53°
2026-05-05 17:09 34.38674 -117.63008 24979 ft 424 kts 52°
2026-05-05 17:09 34.40437 -117.60089 24980 ft 424 kts 52°
2026-05-05 17:09 34.42156 -117.57246 24960 ft 424 kts 52°
2026-05-05 17:09 34.43890 -117.54365 24946 ft 424 kts 53°
2026-05-05 17:10 34.45619 -117.51479 25003 ft 422 kts 52°
2026-05-05 17:10 34.47339 -117.48600 24998 ft 421 kts 52°
2026-05-05 17:10 34.49053 -117.45722 25003 ft 420 kts 53°
2026-05-05 17:10 34.50758 -117.42853 25007 ft 419 kts 53°
2026-05-05 17:11 34.52459 -117.39989 25018 ft 419 kts 53°
2026-05-05 17:11 34.54162 -117.37119 25021 ft 419 kts 53°
2026-05-05 17:11 34.55867 -117.34243 25021 ft 420 kts 53°
2026-05-05 17:11 34.57570 -117.31368 25022 ft 420 kts 53°
2026-05-05 17:12 34.59278 -117.28483 25019 ft 421 kts 53°
2026-05-05 17:12 34.60989 -117.25589 25014 ft 422 kts 53°
2026-05-05 17:12 34.62701 -117.22693 25004 ft 422 kts 53°
2026-05-05 17:12 34.64413 -117.19792 24993 ft 423 kts 53°
2026-05-05 17:13 34.66125 -117.16891 24919 ft 423 kts 53°
2026-05-05 17:13 34.67841 -117.13981 24918 ft 424 kts 53°
2026-05-05 17:13 34.69556 -117.11070 24926 ft 424 kts 53°
2026-05-05 17:13 34.71274 -117.08150 24935 ft 424 kts 53°
2026-05-05 17:14 34.72989 -117.05233 24941 ft 424 kts 53°
2026-05-05 17:14 34.74706 -117.02311 24944 ft 424 kts 53°
2026-05-05 17:14 34.76417 -116.99397 24949 ft 424 kts 53°
2026-05-05 17:14 34.78133 -116.96472 24955 ft 424 kts 53°
2026-05-05 17:15 34.79845 -116.93550 24964 ft 424 kts 53°
2026-05-05 17:15 34.81558 -116.90625 24969 ft 424 kts 53°
2026-05-05 17:15 34.83271 -116.87698 24973 ft 423 kts 53°
2026-05-05 17:15 34.84952 -116.84823 24971 ft 423 kts 54°
2026-05-05 17:16 34.86655 -116.81908 24962 ft 422 kts 53°
2026-05-05 17:16 34.88356 -116.78993 24968 ft 422 kts 53°
2026-05-05 17:16 34.90056 -116.76086 24972 ft 421 kts 53°
2026-05-05 17:16 34.91758 -116.73174 24973 ft 421 kts 53°
2026-05-05 17:17 34.93438 -116.70256 24970 ft 421 kts 54°
2026-05-05 17:17 34.95106 -116.67309 24961 ft 422 kts 54°
2026-05-05 17:17 34.96763 -116.64357 24955 ft 422 kts 54°
2026-05-05 17:17 34.98420 -116.61403 24948 ft 422 kts 54°
2026-05-05 17:18 35.00079 -116.58448 24944 ft 422 kts 54°
2026-05-05 17:18 35.01738 -116.55494 24935 ft 423 kts 54°
2026-05-05 17:18 35.03402 -116.52533 24925 ft 423 kts 54°
2026-05-05 17:18 35.05063 -116.49572 24922 ft 423 kts 54°
2026-05-05 17:19 35.06728 -116.46603 24915 ft 423 kts 54°
2026-05-05 17:19 35.08392 -116.43636 24913 ft 423 kts 54°
2026-05-05 17:19 35.10062 -116.40666 24913 ft 423 kts 54°
2026-05-05 17:19 35.11912 -116.37867 24917 ft 423 kts 46°
2026-05-05 17:20 35.13949 -116.35289 24921 ft 420 kts 44°
2026-05-05 17:20 35.15986 -116.32811 24912 ft 405 kts 44°
2026-05-05 17:20 35.17940 -116.30397 24756 ft 394 kts 45°
2026-05-05 17:20 35.19802 -116.28030 24475 ft 388 kts 45°
2026-05-05 17:21 35.21654 -116.25640 24067 ft 386 kts 46°
2026-05-05 17:21 35.23482 -116.23245 23683 ft 383 kts 47°
2026-05-05 17:21 35.25253 -116.20828 23255 ft 380 kts 48°
2026-05-05 17:22 35.28728 -116.16022 22389 ft 374 kts 47°
2026-05-05 17:22 35.30449 -116.13656 21979 ft 371 kts 47°
2026-05-05 17:22 35.32160 -116.11310 21573 ft 368 kts 47°
2026-05-05 17:22 35.33859 -116.08979 21178 ft 365 kts 47°
2026-05-05 17:23 35.35545 -116.06667 20778 ft 363 kts 47°
2026-05-05 17:23 35.37228 -116.04358 20389 ft 363 kts 47°
2026-05-05 17:23 35.38910 -116.02045 19993 ft 362 kts 48°
2026-05-05 17:23 35.40580 -115.99745 19609 ft 359 kts 48°
2026-05-05 17:24 35.42239 -115.97460 19212 ft 359 kts 48°
2026-05-05 17:24 35.43900 -115.95170 18828 ft 359 kts 48°
2026-05-05 17:24 35.45554 -115.92888 18435 ft 357 kts 48°
2026-05-05 17:24 35.47186 -115.90635 18005 ft 349 kts 48°
2026-05-05 17:25 35.48758 -115.88463 17590 ft 340 kts 48°
2026-05-05 17:25 35.49807 -115.87013 17354 ft 332 kts 48°
2026-05-05 17:25 35.51797 -115.84261 16910 ft 322 kts 48°
2026-05-05 17:25 35.53278 -115.82211 16565 ft 320 kts 48°
2026-05-05 17:26 35.54744 -115.80180 16393 ft 313 kts 48°
2026-05-05 17:26 35.56172 -115.78202 16252 ft 307 kts 48°
2026-05-05 17:26 35.57586 -115.76245 16133 ft 307 kts 48°
2026-05-05 17:26 35.59022 -115.74258 16017 ft 315 kts 48°
2026-05-05 17:27 35.60518 -115.72219 15853 ft 318 kts 47°
2026-05-05 17:27 35.62010 -115.70212 15679 ft 316 kts 47°
2026-05-05 17:27 35.63466 -115.68254 15519 ft 314 kts 47°
2026-05-05 17:27 35.64932 -115.66278 15361 ft 312 kts 47°
2026-05-05 17:28 35.66388 -115.64312 15209 ft 310 kts 47°
2026-05-05 17:28 35.67834 -115.62356 15054 ft 309 kts 48°
2026-05-05 17:28 35.69285 -115.60401 14895 ft 308 kts 48°
2026-05-05 17:28 35.70722 -115.58453 14754 ft 308 kts 49°
2026-05-05 17:29 35.72162 -115.56500 14593 ft 308 kts 48°
2026-05-05 17:29 35.73772 -115.54763 14428 ft 309 kts 32°
2026-05-05 17:29 35.75644 -115.53456 14290 ft 310 kts 29°
2026-05-05 17:29 35.77540 -115.52187 14129 ft 311 kts 29°
2026-05-05 17:30 35.79437 -115.50906 13967 ft 311 kts 30°
2026-05-05 17:30 35.81326 -115.49612 13822 ft 312 kts 30°
2026-05-05 17:30 35.83222 -115.48297 13653 ft 312 kts 30°
2026-05-05 17:30 35.85110 -115.46977 13471 ft 312 kts 31°
2026-05-05 17:31 35.86997 -115.45654 13304 ft 312 kts 30°
2026-05-05 17:31 35.88884 -115.44330 13139 ft 311 kts 31°
2026-05-05 17:31 35.90763 -115.43009 12972 ft 311 kts 30°
2026-05-05 17:31 35.92651 -115.41688 12695 ft 312 kts 30°
2026-05-05 17:32 35.94544 -115.40369 12415 ft 311 kts 30°
2026-05-05 17:32 35.96411 -115.39067 12147 ft 306 kts 30°
2026-05-05 17:32 35.98256 -115.37781 11886 ft 302 kts 30°
2026-05-05 17:32 36.00007 -115.36387 11616 ft 298 kts 44°
2026-05-05 17:33 36.01129 -115.34322 11292 ft 294 kts 70°
2026-05-05 17:33 36.01492 -115.31832 10975 ft 291 kts 91°
2026-05-05 17:33 36.01397 -115.29382 10726 ft 288 kts 94°
2026-05-05 17:33 36.01260 -115.26921 10418 ft 287 kts 94°
2026-05-05 17:34 36.01119 -115.24471 10173 ft 284 kts 94°
2026-05-05 17:34 36.00987 -115.22082 9947 ft 275 kts 93°
2026-05-05 17:34 36.00864 -115.19746 9729 ft 270 kts 93°
2026-05-05 17:34 36.00746 -115.17454 9529 ft 262 kts 93°
2026-05-05 17:35 36.00635 -115.15255 9335 ft 251 kts 93°
2026-05-05 17:35 36.00528 -115.13144 9155 ft 241 kts 93°
2026-05-05 17:35 36.00425 -115.11091 9017 ft 240 kts 94°
2026-05-05 17:35 36.00319 -115.09024 8800 ft 242 kts 94°
2026-05-05 17:36 36.00213 -115.06950 8584 ft 242 kts 94°
2026-05-05 17:36 36.00107 -115.04871 8363 ft 242 kts 94°
2026-05-05 17:36 36.00000 -115.02806 8145 ft 240 kts 94°
2026-05-05 17:36 35.99902 -115.00754 7873 ft 239 kts 93°
2026-05-05 17:37 35.99883 -114.98698 7536 ft 240 kts 92°
2026-05-05 17:37 35.99881 -114.97334 7361 ft 241 kts 92°
2026-05-05 17:37 35.99880 -114.94605 6953 ft 236 kts 91°
2026-05-05 17:37 36.00193 -114.92642 6630 ft 236 kts 60°
2026-05-05 17:38 36.01299 -114.91224 6378 ft 231 kts 35°
2026-05-05 17:38 36.02676 -114.90221 6065 ft 230 kts 20°
2026-05-05 17:38 36.04248 -114.90085 5753 ft 228 kts 342°
2026-05-05 17:38 36.05674 -114.90869 5506 ft 223 kts 327°
2026-05-05 17:39 36.06882 -114.92009 5251 ft 214 kts 302°
2026-05-05 17:39 36.07297 -114.93639 5074 ft 194 kts 268°
2026-05-05 17:39 36.07346 -114.95295 4828 ft 192 kts 269°
2026-05-05 17:39 36.07386 -114.96908 4590 ft 183 kts 268°
2026-05-05 17:40 36.07390 -114.98440 4342 ft 173 kts 266°
2026-05-05 17:40 36.07389 -114.99851 4148 ft 155 kts 265°
2026-05-05 17:40 36.07387 -115.01141 3939 ft 148 kts 266°
2026-05-05 17:40 36.07384 -115.02396 3751 ft 145 kts 266°
2026-05-05 17:41 36.07379 -115.03645 3555 ft 147 kts 268°
2026-05-05 17:41 36.07376 -115.04919 3361 ft 150 kts 268°
2026-05-05 17:41 36.07375 -115.06196 3154 ft 147 kts 268°
2026-05-05 17:41 36.07372 -115.07452 2970 ft 148 kts 268°
2026-05-05 17:42 36.07371 -115.08718 2757 ft 149 kts 268°
2026-05-05 17:42 36.07369 -115.09999 2530 ft 148 kts 266°
2026-05-05 17:42 36.07372 -115.11258 2351 ft 146 kts 266°
2026-05-05 17:42 36.07371 -115.12521 2179 ft 149 kts 266°
2026-05-05 17:43 36.07370 -115.13728 2119 ft 128 kts 268°
2026-05-05 17:43 36.07363 -115.14601 2125 ft 69 kts 271°
2026-05-05 17:43 36.07421 -115.14940 2122 ft 17 kts 297°
2026-05-05 17:43 36.07446 -115.14999 2121 ft 0 kts 299°